STARLINK-37040, 69362

Orbit data source: Space-Track

STARLINK-37040, 69362 is a payload satellite owned by SpaceX/Seattle (US) in LEO that was launched on Thu, 04 Jun 2026 UTC via an FALCON 9 launch vehicle from the Air Force Eastern Test Range (AFETR). Payload-class satellites include a variety of spacecraft equipped with specific instruments for various scientific and technological missions. These include communications satellites like Starlink; space stations such as the ISS; scientific satellites like the Hubble; Earth observation satellites from companies like Planet Labs, Umbra, and HawkEye 360; GPS; miniature CubeSats for education and research; and military/defense satellites.

Loading next visibility...
Identifier
69362, 2026-123K
Orbit
LEO
Country
Flag of USUS
Related business
Manufacturer
SpaceX/Seattle
Mission
Operational spacecraft
Bus & Motor
STARLINK V2MO, Unknown motor
Mass
575 kg wet, ~530 kg dry
Launch date (UTC)
2026-06-04 (2 months ago)
Launch vehicle
FALCON 9
Launch site
Air Force Eastern Test Range (AFETR)
Object type
Payload
Rocket body
Debris
Shape & HBR
Unknown shape, 17.7 m
Radar Cross Section
Large (>1 m²)

Expand to show TLE details & history
Last TLE update: 13 hours ago

TLE from 13 hours ago
0 STARLINK-37040
1 69362U 26123K   26202.14954913  .00159554  00000-0  10246-2 0  9992
2 69362  53.1586  71.9274 0001011  97.0971 263.0165 15.75259518  7404
Epoch: 2026-07-21T03:35Z
TLE epoch observation values (Epoch: 2026-07-21T03:35:21.044Z)
Latitude
0.00002°
Longitude
79.16635°
Altitude
344.893 km
Speed
7.703 km/s
True Right ascension
04h 47m 42s
True Declination
0° 00' 00"
Sunlit
Object was in daylight at epoch
Visualization orbit readout
Latitude
Unknown
Longitude
Unknown
Altitude
Unknown
Speed
Unknown
Apparent Right ascension
Unknown
Apparent Declination
Unknown
Sunlit
N/A
Visualization observer readout
Local Sidereal Time
05:51:36
Azimuth
Unknown
Elevation
Unknown
Doppler factor
Unknown
Orbital elements
Apogee altitude
344.834 km
Perigee altitude
343.475 km
Semi-major axis
6,722.291 km
Eccentricity
0.0001
Inclination
53.1586°
RAAN
71.9274°
Arg. of periapsis
97.0971°
True anomaly
263.005°
Mean anomaly
263.0165°
Eccentric anomaly
263.01075°
Mean motion
3.93792 °/min
Orbital period
91.42 mins
BSTAR
0.0010246
Loading maneuver chart data...
Computing Atmospheric mass density...
Loading historical data...
Loading historical data...
Loading historical data...
Loading historical data...
Loading historical data...
Loading historical data...
Loading historical data...

Documentation

Showing up to 5 results
|